RH
62 62 63 64 64 64 65 65 64 65 64 63 63 64 67 67 60 59 61 55 53 58 60 57 57 62 65 60 57 59 58 55 56 55 54 54 55 57 57 57 60 61 62 66 68 71 76 81 85 83 80 81 83 86 89 82 75 76 79 79 80 80 81 83 82 79 73 66 61 59 58 58 60 62 63 64 63 61 64 68 70 73 72 70 69
66 65 65 65 65 65 66 65 64 65 64 63 63 62 63 64 59 55 55 52 52 56 58 57 61 68 68 62 62 63 61 62 63 61 58 58 57 59 59 62 68 72 74 77 78 78 81 87 91 90 87 89 94 98 94 82 75 80 81 82 86 88 86 84 81 78 77 73 67 64 61 59 61 62 62 65 68 68 70 71 70 71 72 71 71
68 67 67 66 66 65 66 67 65 65 64 63 63 61 60 61 58 55 54 53 55 58 59 62 69 73 69 65 67 68 66 68 69 66 63 63 62 62 65 71 78 82 83 85 86 86 88 93 95 93 92 94 98 97 92 83 80 84 87 88 90 90 88 85 85 85 84 82 77 71 68 66 66 66 64 65 68 70 74 75 73 72 71 72 75
69 68 67 67 67 65 65 67 67 66 64 62 62 61 60 61 59 57 57 57 60 62 61 67 77 77 71 71 73 72 70 73 73 71 69 69 68 70 77 85 89 90 92 93 95 96 96 99 99 97 96 97 98 97 92 89 88 89 92 93 92 93 91 89 90 89 86 84 80 74 71 70 67 66 65 66 65 65 67 71 74 76 75 74 74
70 68 66 66 66 66 65 66 66 67 64 61 62 62 61 62 60 57 61 63 64 66 66 74 82 78 75 78 80 78 78 80 79 78 77 74 76 85 93 97 98 98 98 98 99 100 100 100 98 98 99 98 98 99 97 96 96 94 95 96 94 93 90 88 88 85 83 83 80 75 70 66 65 62 62 65 67 67 67 67 71 75 78 79 75
72 69 68 68 68 67 67 67 65 67 66 61 62 63 61 63 60 60 68 70 70 72 76 83 84 81 84 87 86 88 91 89 88 89 83 78 86 97 99 100 101 101 100 101 99 96 95 97 96 96 99 100 100 100 100 100 100 98 99 99 97 95 92 89 86 84 83 82 78 74 68 63 61 57 56 59 63 66 66 66 69 72 74 81 82
73 71 70 72 73 70 70 70 69 71 68 62 62 63 62 63 62 67 76 75 74 81 87 89 88 90 94 93 93 98 97 96 97 89 76 76 91 101 99 100 101 98 98 97 91 87 92 100 101 99 100 102 100 100 101 101 100 98 97 95 95 96 93 88 84 82 83 80 76 71 64 60 56 53 52 54 57 61 61 61 70 74 72 77 86
74 73 72 72 73 72 71 72 72 73 68 63 64 64 62 63 65 73 79 77 80 92 95 92 95 99 98 96 99 99 95 94 87 71 66 82 98 101 99 100 97 94 95 93 88 91 97 97 96 95 99 104 104 101 101 102 101 99 95 91 91 93 91 86 82 79 77 74 72 68 63 59 56 52 51 50 52 57 58 59 67 74 73 72 77
74 74 72 69 69 71 73 74 73 71 65 63 67 68 65 66 70 75 79 82 91 99 96 95 101 100 96 97 95 91 93 86 66 62 80 97 101 100 99 99 98 97 99 97 95 98 96 91 88 86 85 92 97 97 99 102 103 102 99 95 94 93 90 88 83 79 76 72 70 67 64 61 58 55 54 51 50 53 57 59 64 69 71 68 67
71 72 72 68 68 72 74 74 72 68 65 67 72 72 69 72 78 79 83 90 98 100 97 99 99 92 92 96 90 90 96 76 57 75 99 101 98 100 99 99 100 99 98 99 99 99 97 96 97 92 84 82 80 79 87 97 100 101 101 102 103 100 96 94 90 84 80 76 73 70 68 67 64 59 58 56 53 53 56 60 64 66 66 65 65
67 69 71 68 69 73 73 71 70 68 68 71 74 76 77 81 84 86 92 96 96 97 97 95 89 87 96 97 90 98 96 68 67 95 104 98 100 101 99 100 99 98 99 100 100 99 99 100 98 96 94 93 87 82 87 90 83 81 86 91 98 103 102 101 98 92 88 83 79 76 72 73 73 71 70 67 63 60 60 63 68 69 67 67 66
65 65 69 70 72 74 71 69 70 70 72 76 77 81 86 90 89 92 97 95 91 93 90 86 88 94 100 95 93 105 89 60 78 106 100 97 103 99 100 101 97 99 101 99 100 99 98 98 96 96 96 97 98 98 98 89 73 68 69 68 74 84 94 102 103 99 94 87 84 82 79 79 80 80 78 76 72 70 68 69 70 69 69 68 68
66 66 71 73 75 76 73 72 74 75 77 79 82 87 94 95 92 96 99 91 89 93 86 84 94 97 97 95 97 102 79 58 85 107 98 99 103 99 101 96 91 100 102 98 101 101 97 96 96 97 97 98 99 100 101 96 85 75 70 66 67 68 73 85 92 96 98 95 90 86 81 80 82 82 82 84 85 84 81 77 72 67 66 66 66
69 71 75 76 77 77 76 76 77 78 79 82 88 93 98 97 94 97 96 87 88 93 87 89 97 95 95 97 98 98 84 76 95 104 98 101 101 98 100 92 90 101 102 98 100 98 97 99 98 99 99 99 100 100 100 99 93 88 88 89 89 84 82 83 81 80 84 87 90 90 85 84 89 92 94 96 97 97 92 87 82 80 82 81 79
73 75 78 79 77 76 78 78 79 81 85 90 95 97 98 98 96 95 93 87 87 89 87 92 97 95 95 96 100 103 97 95 102 101 98 101 99 99 100 93 94 100 96 94 98 97 99 101 99 100 101 99 100 98 94 93 96 98 99 98 97 96 95 94 89 84 80 79 89 96 94 93 98 101 100 98 101 102 98 95 95 94 95 91 84
77 78 80 80 77 78 81 81 84 91 94 97 99 98 97 97 96 96 93 89 89 90 91 96 98 97 96 97 103 105 98 98 102 101 100 101 99 101 99 89 92 96 92 93 97 97 100 100 98 100 99 97 97 95 88 89 98 104 100 96 97 95 92 92 91 89 86 85 92 99 99 100 101 101 100 101 100 91 83 84 85 83 83 79 71
79 78 79 79 79 83 85 84 92 97 98 102 102 95 96 99 97 98 96 92 94 95 95 97 96 96 98 98 102 106 98 86 82 90 101 102 98 101 98 89 88 90 92 96 96 93 93 94 96 98 98 98 101 95 78 71 85 100 99 97 99 95 92 93 85 76 77 86 94 98 100 98 92 88 90 94 88 72 67 73 72 72 76 71 62
79 77 81 79 80 87 86 83 93 94 88 93 91 82 90 100 97 98 97 93 95 95 94 96 94 93 98 95 95 107 99 68 55 77 97 97 97 102 99 92 91 89 92 95 91 86 87 88 91 95 96 98 96 80 57 52 75 98 99 98 100 94 88 89 88 84 87 96 97 92 88 83 76 72 71 71 68 60 60 65 66 70 73 64 58
79 80 85 80 79 91 87 75 81 82 72 72 68 66 87 102 97 95 94 90 95 95 92 96 90 85 94 96 92 102 99 69 57 79 92 88 95 106 100 94 96 94 92 92 84 81 84 85 86 87 89 94 89 69 46 47 75 99 101 99 99 92 82 85 95 96 88 84 81 75 70 67 63 60 57 55 55 55 55 56 60 71 74 65 60
79 81 85 81 83 95 89 70 68 69 65 64 56 61 91 103 89 88 92 92 93 86 81 88 88 82 90 95 89 93 96 80 67 79 90 85 88 100 101 97 100 99 93 88 82 80 82 82 82 86 90 96 97 83 61 56 77 97 101 97 94 89 86 88 94 88 75 69 69 65 63 62 58 58 58 54 51 50 50 50 52 62 74 74 66
79 81 87 86 84 84 74 64 64 60 60 62 53 58 87 90 70 76 92 90 77 62 61 79 89 85 88 92 89 87 89 84 72 69 75 70 69 90 105 100 97 100 95 86 81 82 83 82 85 91 94 98 102 91 71 70 87 98 97 96 99 99 96 91 85 79 72 70 68 65 64 62 60 63 65 64 62 57 49 47 46 49 62 74 73
83 86 89 83 74 66 57 58 61 54 54 60 53 55 73 69 54 65 78 73 63 57 65 84 94 91 90 94 95 89 83 83 75 61 57 51 49 73 100 103 98 100 95 87 85 85 85 87 91 94 97 100 97 84 73 81 96 99 96 98 100 97 93 88 85 80 74 71 68 66 64 62 61 64 65 67 71 65 52 48 48 45 49 59 67
84 83 80 68 59 57 55 56 57 51 53 57 52 54 63 58 58 71 70 66 75 81 84 94 99 97 95 94 94 94 89 84 75 64 60 54 43 53 80 99 103 100 96 93 91 88 89 94 95 97 100 95 80 72 81 95 99 98 98 97 92 87 85 84 83 79 74 71 69 66 64 63 63 65 66 66 65 58 49 45 46 45 46 47 51
73 70 67 60 56 56 54 54 54 51 53 55 53 57 59 53 64 82 77 75 91 97 92 96 97 94 94 91 89 94 96 89 80 72 67 64 62 67 84 98 102 100 99 98 94 92 95 97 96 99 102 93 79 80 94 101 99 99 98 90 83 82 82 81 80 79 75 70 67 66 65 64 66 68 64 56 49 45 44 44 44 44 46 46 48
64 63 61 61 59 54 51 51 50 49 53 57 56 59 61 60 69 84 86 87 97 99 94 96 97 92 92 92 89 93 97 94 89 82 76 76 86 95 98 100 100 100 100 99 97 98 99 98 98 101 100 95 92 96 101 100 98 99 94 85 80 80 80 80 80 78 74 68 66 67 65 65 71 71 58 47 47 50 52 55 59 60 61 63 67
66 64 61 60 57 52 52 52 51 51 54 58 60 62 68 71 74 83 92 95 98 99 97 97 97 95 92 92 93 95 98 97 95 93 92 94 99 101 100 100 100 100 99 98 98 99 99 98 101 103 100 96 95 99 102 99 93 87 82 78 78 79 79 80 80 77 72 68 67 68 67 68 72 68 56 54 62 67 68 72 76 77 77 79 81
68 64 61 59 56 55 55 53 56 61 61 62 69 75 79 80 80 85 95 98 96 98 100 99 98 97 94 95 97 98 97 96 96 97 100 101 100 100 100 100 100 99 99 97 97 98 99 101 102 100 95 93 91 89 90 90 85 82 78 75 77 78 74 74 81 83 77 72 71 71 71 73 74 71 68 71 74 74 75 80 83 82 81 83 85
66 65 62 57 57 57 54 50 55 64 64 63 70 78 78 78 80 81 88 97 101 102 101 99 98 98 98 98 98 97 96 96 97 100 103 101 99 100 100 99 100 100 99 98 99 100 101 102 99 91 82 81 81 79 78 79 81 81 76 72 76 79 70 68 78 83 77 74 76 76 76 77 78 77 77 76 75 75 78 82 86 89 90 90 89
64 65 60 56 56 54 53 54 55 61 66 67 69 73 73 73 75 73 76 89 100 101 101 101 101 100 99 99 99 100 100 96 92 96 102 101 100 100 100 100 100 100 99 99 100 101 102 99 92 84 78 76 76 74 73 74 76 77 75 74 78 79 75 74 77 76 75 78 79 78 77 78 78 77 76 73 72 74 78 85 92 96 96 93 88
65 64 60 60 60 56 57 62 63 69 79 78 73 72 71 69 72 72 71 76 81 85 91 97 99 101 102 101 100 100 99 93 87 91 101 104 101 99 99 100 100 100 100 101 101 102 101 95 87 84 83 82 80 78 77 77 77 78 79 80 80 80 80 80 78 77 81 86 86 85 86 86 85 84 82 81 82 83 87 94 100 99 96 92 87
72 74 70 66 60 54 56 60 62 72 84 83 79 79 77 72 70 69 68 69 70 71 75 80 87 94 99 101 100 94 89 87 89 93 99 100 95 93 96 99 101 101 99 99 103 103 97 90 87 87 88 89 89 88 88 88 88 88 87 85 84 83 83 83 83 88 94 96 95 96 96 96 95 94 92 93 95 95 96 97 97 96 94 90 86
69 73 69 60 52 50 54 57 62 72 81 82 83 87 88 86 79 68 62 64 67 68 69 73 78 84 88 92 95 92 87 88 91 93 93 91 89 93 99 101 103 101 96 94 100 100 93 90 91 91 91 93 94 94 96 97 96 97 97 95 92 92 92 92 94 97 101 102 102 102 101 101 101 100 99 100 100 99 98 96 94 93 92 90 89
60 61 58 53 51 53 56 61 70 79 83 84 84 87 93 97 93 79 66 61 61 63 66 70 75 78 81 85 88 89 88 89 89 88 86 86 93 100 102 98 97 97 95 96 99 98 94 94 94 95 96 97 97 98 100 100 100 100 100 100 100 100 99 99 99 100 103 105 107 107 106 106 105 104 102 102 100 99 97 94 91 91 90 89 88
56 55 54 52 53 55 61 69 76 81 83 83 83 86 90 93 93 90 83 76 70 66 64 67 71 75 80 84 85 86 86 85 84 83 83 89 100 104 99 93 92 94 96 100 101 99 97 97 97 97 98 99 99 100 101 100 101 101 100 100 101 101 100 100 101 103 104 105 105 105 105 105 106 106 103 101 99 97 94 91 90 88 88 88 88
51 51 52 53 55 61 69 76 79 80 80 80 81 84 84 82 83 87 90 90 87 81 74 69 69 73 80 84 86 86 85 82 80 81 86 94 101 101 98 97 97 97 99 101 102 100 100 100 100 99 100 101 101 102 102 101 101 100 100 100 101 100 100 101 101 101 101 102 102 103 104 105 106 105 103 101 100 98 95 93 91 89 90 92 93
49 51 54 58 63 69 73 76 77 77 77 76 77 78 77 75 76 79 82 87 90 89 84 77 72 72 77 83 86 86 83 79 78 81 87 93 97 100 103 104 103 102 103 102 101 102 103 102 102 102 103 103 103 102 101 101 100 100 100 101 100 100 101 100 100 100 101 101 100 101 101 102 103 103 103 102 101 101 100 98 96 94 96 97 97
51 55 59 64 68 71 72 71 71 71 70 70 71 72 71 70 72 75 80 83 85 86 86 84 81 81 83 87 91 90 81 75 76 81 88 92 95 100 106 108 106 107 106 103 102 103 104 103 103 104 104 104 103 101 101 101 101 101 101 100 100 100 100 100 100 101 100 100 100 100 100 100 101 102 102 102 101 100 99 98 98 98 99 100 100
55 58 63 66 68 70 71 69 67 66 67 67 69 69 70 70 72 77 81 82 81 81 84 85 88 92 94 94 96 94 85 79 82 87 90 92 95 100 105 107 108 108 108 105 103 103 104 104 104 104 104 103 101 102 103 103 101 101 101 101 101 101 100 100 100 100 100 101 100 100 100 100 100 100 100 101 102 100 100 100 101 101 101 100 98
57 59 62 65 67 70 72 70 67 66 67 67 68 70 72 75 79 84 87 86 82 82 84 86 88 91 93 94 98 101 97 93 94 97 95 93 95 98 100 103 105 106 107 107 105 104 103 103 102 102 103 102 100 101 103 102 101 101 101 101 100 100 100 101 100 100 100 100 100 100 100 100 100 100 100 100 100 100 100 102 103 102 102 100 97
58 58 59 62 66 69 69 69 67 67 69 71 72 75 78 82 86 91 94 94 91 86 85 86 84 84 86 91 98 105 105 101 103 106 103 97 95 93 95 99 101 101 103 105 106 107 105 103 102 103 104 103 101 100 100 101 101 101 100 100 101 100 100 100 100 100 100 100 100 100 100 100 100 100 100 100 100 100 100 101 101 101 101 100 99
58 57 57 60 65 69 69 68 67 69 72 74 75 79 82 86 90 95 97 99 98 94 90 85 82 80 83 87 96 104 106 105 107 108 104 99 95 92 92 94 96 97 99 100 102 104 106 105 106 107 107 106 105 102 100 100 100 100 100 100 100 100 100 100 100 100 100 100 100 100 100 100 100 100 100 100 100 100 100 100 100 100 99 99 99
60 60 59 61 65 69 70 69 69 70 72 74 77 82 86 90 93 97 99 98 98 98 96 90 85 84 85 87 93 100 103 105 107 107 102 98 95 91 89 89 90 92 94 93 93 97 102 104 105 106 106 108 108 105 102 100 100 100 100 100 100 100 100 100 100 100 100 100 100 100 100 100 100 100 100 101 100 100 100 100 100 100 99 99 99
62 62 63 64 66 70 71 72 74 76 77 80 83 85 88 92 94 96 98 98 97 99 101 97 93 92 90 89 92 97 100 103 106 105 102 99 95 90 87 86 85 85 86 84 85 91 97 99 101 102 103 104 105 106 105 102 100 100 100 100 100 100 100 100 100 100 100 100 100 100 100 100 100 100 100 100 100 100 100 100 99 100 99 98 98
65 65 66 67 68 70 71 73 78 81 83 86 88 87 88 93 95 97 99 100 98 99 101 100 99 98 95 93 94 97 101 103 105 104 101 99 95 90 86 82 79 78 78 78 80 84 89 93 94 95 95 95 98 103 107 106 103 101 100 100 100 100 100 100 100 100 100 100 100 100 100 100 100 100 100 100 100 100 100 100 100 100 99 99 98
65 66 68 69 70 73 75 78 82 86 88 91 93 92 93 96 98 99 102 103 102 101 101 101 101 100 98 96 97 99 102 105 105 103 101 98 96 93 89 84 79 76 74 75 76 78 82 87 89 89 89 88 89 95 103 108 108 104 101 100 100 100 100 100 100 100 100 100 100 100 100 100 100 100 100 100 99 99 99 99 99 99 99 99 98
66 67 69 71 74 78 81 83 86 89 92 94 96 96 97 99 100 101 102 103 104 104 103 102 102 101 100 98 99 100 102 106 106 104 101 98 96 95 92 87 83 77 73 72 73 75 77 81 84 85 84 82 81 87 97 105 109 106 102 100 100 100 100 101 101 101 101 101 102 103 102 100 100 100 100 100 100 100 99 100 99 99 100 99 99
73 73 75 77 80 84 85 87 89 91 93 94 96 97 98 99 99 100 101 102 103 105 105 104 103 102 100 99 99 100 103 106 106 105 102 99 97 96 95 91 88 83 77 73 73 76 78 79 79 79 79 77 77 84 94 102 106 107 104 101 100 100 100 100 100 100 100 100 102 103 101 100 100 100 100 100 100 99 100 100 99 99 100 99 99
79 80 81 82 85 87 87 88 90 93 94 95 96 97 97 98 99 100 101 101 102 104 106 106 105 104 101 99 98 100 103 106 106 105 104 102 100 100 100 97 94 92 88 81 78 78 80 79 77 76 76 76 78 85 93 99 103 106 106 103 100 100 101 100 100 100 100 99 100 100 100 100 101 100 100 101 101 99 100 100 99 98 99 99 99
82 83 84 85 87 88 89 90 92 94 95 97 98 98 97 97 98 99 101 102 103 104 106 106 107 106 104 101 99 99 102 104 104 104 104 103 103 103 104 102 100 100 99 94 87 83 80 79 76 75 76 77 79 84 90 96 101 104 106 105 102 101 101 100 100 100 100 100 100 100 100 100 100 100 100 100 100 100 100 100 99 100 100 99 99
83 85 87 88 88 89 90 92 94 94 95 97 99 100 99 99 99 99 101 103 104 104 105 106 107 107 106 103 101 100 101 102 104 104 103 101 101 103 104 104 103 103 103 100 94 88 84 81 78 77 77 78 79 82 87 94 99 103 104 105 105 105 103 102 100 100 100 100 100 100 100 100 100 100 100 100 100 100 100 100 100 100 100 99 100
87 88 90 91 91 92 93 94 95 96 97 99 101 102 102 102 102 102 103 105 105 106 106 107 108 107 105 104 103 102 101 101 102 102 101 101 100 101 102 102 102 102 101 99 94 91 88 85 81 78 78 78 78 79 84 90 96 99 101 102 103 103 104 103 101 100 100 100 100 100 100 100 100 100 100 100 100 100 100 100 100 100 100 100 100
Wind_Speed
12 12 13 13 14 14 14 14 14 14 14 14 14 13 13 13 14 14 12 14 15 14 14 15 15 14 13 14 15 13 14 15 14 14 15 15 14 14 14 15 15 15 14 14 13 13 14 14 14 14 14 14 13 12 12 13 13 14 13 14 15 14 15 16 15 18 21 18 16 19 17 17 19 18 19 22 25 26 25 24 22 23 24 25 26
11 11 11 12 13 13 13 13 13 13 13 14 14 13 13 12 14 15 13 14 14 13 13 14 13 12 12 13 13 12 13 13 13 14 15 15 15 14 15 15 15 15 15 15 15 14 15 15 14 14 13 13 13 11 12 14 14 15 14 14 15 15 14 16 17 18 21 20 17 18 18 16 17 18 17 18 19 19 19 21 22 21 22 24 24
10 10 11 12 12 12 12 12 12 12 12 13 13 13 12 12 14 14 13 13 13 12 13 13 12 11 12 13 12 12 13 13 13 15 15 15 15 15 15 16 16 16 16 16 16 15 15 15 15 14 14 14 13 13 13 14 14 14 15 14 15 16 14 15 17 18 21 22 19 17 17 16 15 17 17 18 19 20 20 20 22 22 21 21 22
9 10 11 11 11 12 12 12 12 12 12 13 13 13 13 12 14 15 14 14 14 13 14 13 11 12 13 13 12 13 13 13 14 15 15 15 15 15 15 15 15 16 16 16 16 15 15 15 15 15 15 15 15 15 14 15 15 15 16 15 14 15 14 14 15 17 19 22 21 18 18 18 18 18 19 20 20 21 21 20 21 22 21 21 22
9 9 10 11 11 12 12 12 13 13 13 13 14 14 14 14 15 16 15 15 14 14 14 13 11 12 13 12 13 13 13 13 15 15 15 15 15 15 16 17 18 18 18 17 16 15 14 15 16 17 16 16 16 16 15 16 16 16 15 14 13 14 15 15 16 17 19 22 23 21 20 20 20 19 19 20 20 20 19 19 19 20 20 20 21
9 10 10 10 11 12 12 13 13 13 13 15 15 15 16 15 16 16 14 14 14 13 13 12 11 12 12 12 12 12 12 13 13 14 15 16 16 18 21 23 23 21 19 17 15 15 15 16 16 14 13 14 15 15 15 15 15 14 14 14 15 15 17 17 18 19 20 23 24 24 23 22 22 21 19 19 21 20 20 21 20 20 20 20 20
9 10 10 10 11 12 12 12 13 12 13 15 15 15 16 15 16 15 13 13 13 12 12 12 11 11 11 11 12 12 12 12 13 15 17 18 21 24 26 25 23 21 18 16 15 15 15 14 13 13 13 14 15 16 16 16 16 16 16 16 16 16 17 18 19 20 21 22 23 24 24 23 23 23 21 19 21 22 22 22 20 18 18 18 16
9 9 10 10 10 11 11 12 12 13 14 15 15 15 15 15 15 14 13 13 13 11 12 12 11 10 11 12 13 13 14 15 16 18 20 22 25 26 25 23 21 18 16 15 14 14 15 16 18 19 19 17 17 18 18 18 18 18 18 18 18 18 18 19 20 21 21 22 23 24 25 24 24 23 21 20 20 20 19 19 19 18 17 17 16
9 9 10 11 11 11 11 12 12 13 14 15 14 14 15 15 14 14 13 13 11 11 12 12 11 12 13 14 15 15 16 17 18 19 22 25 25 24 22 19 17 16 17 17 16 16 18 21 22 23 23 22 21 21 20 19 19 19 20 19 19 20 20 20 20 21 22 23 24 24 24 24 23 21 20 18 19 20 19 20 21 20 19 19 19
9 9 10 11 11 10 11 11 12 13 14 14 14 14 15 14 14 14 13 12 11 11 12 12 12 14 14 15 16 16 16 17 19 20 22 24 23 21 18 15 15 19 19 18 18 18 19 19 19 22 24 25 25 25 23 22 20 20 21 20 20 21 22 22 21 21 21 22 23 23 22 22 21 20 20 20 20 21 21 20 20 21 20 20 20
9 9 9 10 10 10 10 11 12 12 13 13 13 14 14 14 13 13 12 11 11 11 12 13 14 14 13 15 17 16 16 18 19 21 23 22 21 19 16 16 20 20 18 17 18 19 18 19 20 21 22 23 24 25 24 24 23 23 24 24 23 23 23 23 23 22 22 22 22 22 21 21 21 19 18 19 20 20 20 20 19 19 19 17 16
9 9 9 9 9 9 10 11 11 12 12 13 13 13 12 12 12 12 11 11 11 11 12 13 13 12 13 15 16 15 17 19 19 21 23 21 21 19 16 19 21 17 15 16 17 17 18 19 20 20 20 20 22 22 23 24 25 25 25 26 27 27 26 26 26 25 24 24 23 23 22 21 21 20 19 20 21 21 21 20 20 19 19 19 18
9 9 8 9 9 9 9 10 10 11 11 12 12 11 10 11 11 10 10 11 11 10 12 12 11 12 14 16 15 15 18 19 19 21 22 21 21 20 19 22 20 15 14 15 15 16 18 19 19 18 18 19 19 19 20 23 25 26 27 28 28 29 29 28 28 28 28 27 27 26 25 24 24 24 23 22 22 23 22 21 21 21 21 21 20
9 9 8 8 9 8 9 10 10 10 10 10 10 9 8 10 11 9 9 11 11 10 12 12 12 13 15 15 15 16 18 19 20 22 22 21 23 21 20 22 19 14 14 14 16 17 17 17 18 18 17 17 16 17 20 23 26 27 27 28 28 29 29 29 30 30 30 30 29 28 29 30 29 29 28 26 25 24 23 22 21 19 19 20 22
8 8 7 8 9 9 9 9 10 10 9 9 10 9 8 10 10 9 9 11 10 10 11 12 12 14 15 15 15 16 17 18 21 23 21 22 24 20 17 19 16 13 14 15 16 17 16 16 16 16 16 16 16 19 22 25 26 26 27 28 29 28 27 28 29 29 30 30 30 29 30 30 25 20 18 17 16 17 18 19 18 18 20 22 24
8 8 7 8 9 9 9 9 9 9 9 9 10 9 9 11 10 9 10 11 10 10 11 11 12 14 15 15 16 16 16 18 21 22 22 24 25 20 16 16 13 12 15 15 15 15 15 14 14 15 17 18 19 21 24 26 27 27 27 29 29 28 28 27 28 30 30 29 26 22 19 16 12 8 10 8 6 9 10 12 13 13 14 16 17
7 8 7 8 9 9 8 9 10 9 9 10 10 10 10 11 10 9 11 11 9 10 11 10 11 13 14 15 15 15 17 18 20 21 23 24 25 21 16 14 13 13 14 13 14 14 14 14 15 17 18 19 21 23 26 29 30 28 27 29 29 29 28 27 28 29 28 25 21 16 12 12 12 13 13 11 11 13 12 9 11 11 9 9 12
7 8 7 8 8 8 8 9 10 10 10 11 11 12 12 11 10 10 10 11 10 10 10 10 11 11 12 14 15 15 17 19 19 20 23 23 24 21 15 12 12 13 13 13 14 14 15 16 17 18 19 21 24 27 29 31 30 28 28 29 29 28 26 25 24 23 21 19 19 16 15 16 17 17 16 14 15 15 13 11 13 11 9 11 13
7 7 7 7 8 7 7 9 9 10 11 11 12 13 11 10 10 9 9 9 9 9 10 11 13 13 11 13 15 14 16 19 20 20 22 22 23 21 15 11 12 13 14 15 15 15 15 16 17 18 20 22 27 30 30 30 31 30 29 27 27 26 25 22 17 14 14 14 16 16 16 17 17 18 18 17 16 16 14 13 13 10 9 12 13
6 6 6 7 7 6 6 9 9 9 10 11 12 12 10 9 10 10 10 8 8 10 12 12 14 14 12 13 14 14 15 18 20 21 21 20 22 21 16 13 14 15 15 16 17 16 16 17 17 18 20 23 28 31 32 33 34 31 26 22 22 21 17 12 8 8 11 14 16 18 18 18 19 18 18 18 17 17 16 15 14 11 10 12 13
6 6 5 6 6 5 6 8 8 9 9 10 11 11 9 10 12 12 10 9 11 14 15 13 14 14 12 12 13 14 16 18 20 22 21 20 21 21 17 15 16 17 17 17 17 17 17 18 17 18 22 25 29 33 36 36 31 25 20 18 17 16 12 9 9 12 14 15 16 16 14 15 15 14 14 15 17 18 19 19 18 16 13 12 13
5 5 4 5 5 6 7 8 8 9 9 10 11 12 11 12 14 13 12 12 14 16 16 14 13 14 12 11 10 13 16 18 19 21 22 21 21 20 18 17 17 17 17 17 17 17 17 18 18 21 25 27 30 33 35 30 22 17 16 17 18 18 16 13 12 13 13 13 13 13 13 13 13 12 12 12 13 18 23 23 22 22 20 18 16
5 4 4 5 6 7 8 8 9 10 10 10 12 12 12 13 13 12 13 14 13 13 13 12 12 12 11 9 8 10 14 17 19 21 22 22 21 20 18 17 17 17 17 17 17 17 17 17 19 23 27 28 30 32 30 23 17 15 16 18 19 19 17 13 11 12 12 12 12 12 12 13 14 14 14 15 17 22 26 27 27 27 26 25 23
5 5 5 6 7 7 8 9 9 10 10 11 12 12 13 15 13 11 12 12 10 9 9 9 9 10 11 10 10 10 10 13 18 21 21 22 21 20 19 18 18 18 17 16 16 16 17 19 22 25 27 28 29 28 25 20 15 15 17 19 19 18 15 13 12 12 13 13 13 12 13 14 14 14 17 22 25 28 29 29 29 29 28 29 28
7 5 5 5 6 7 8 8 9 10 10 11 12 13 14 16 14 11 11 10 8 8 8 8 9 10 10 11 11 10 11 14 17 19 22 23 20 18 18 19 19 19 19 18 16 17 20 23 24 25 25 26 25 23 20 18 16 16 17 18 18 16 14 13 13 13 12 12 12 12 13 13 13 16 23 28 28 27 27 26 25 25 25 25 24
7 6 5 5 6 7 9 9 9 10 11 11 12 13 14 15 15 12 9 7 7 8 8 9 9 9 10 11 11 11 13 14 13 14 19 20 17 17 19 19 19 19 19 18 17 18 21 23 23 24 24 23 21 19 17 17 18 19 19 19 18 16 15 13 13 13 13 12 12 13 14 15 16 21 26 26 23 21 21 21 20 19 17 17 18
6 5 4 4 5 7 9 9 10 10 11 12 12 11 12 13 14 12 8 7 8 9 9 10 9 9 11 11 11 11 12 12 10 12 16 18 18 19 19 19 19 18 16 16 17 19 22 23 22 22 21 20 19 18 16 16 17 18 20 21 19 18 19 18 14 13 13 13 14 15 17 17 19 20 21 19 17 18 18 18 17 16 15 14 15
5 5 4 4 5 7 9 10 10 11 12 13 13 12 12 13 14 12 9 9 10 10 10 11 10 10 12 12 12 12 12 10 11 14 18 20 21 21 20 19 19 17 16 18 21 23 23 21 18 18 18 17 18 18 16 15 16 17 20 22 19 19 22 21 15 13 13 14 15 16 16 16 16 17 17 17 17 17 17 15 14 13 13 12 13
4 3 3 4 6 8 9 10 11 11 12 14 14 14 14 14 13 13 12 10 10 11 12 13 12 12 13 13 13 14 14 14 17 20 21 21 21 21 21 20 20 20 20 22 23 23 20 16 14 15 17 17 17 17 17 17 17 17 20 21 19 18 19 17 15 14 15 14 15 16 16 16 17 17 17 18 18 17 15 13 12 12 11 11 14
4 3 3 4 6 8 9 10 11 10 11 14 16 16 16 14 13 13 13 13 11 9 9 11 12 12 13 14 15 16 18 21 23 23 22 22 22 22 21 20 21 21 21 22 22 20 15 13 14 15 14 14 15 16 16 16 17 17 18 18 17 17 17 16 15 14 13 13 14 14 14 15 16 16 15 16 16 14 12 11 12 11 11 12 14
3 3 4 5 6 8 9 10 12 11 11 13 16 18 18 17 15 14 14 15 13 10 7 8 10 11 13 15 17 19 20 21 22 21 21 22 22 20 20 20 20 20 21 22 21 17 12 12 14 13 12 12 12 12 12 12 13 14 15 15 15 15 14 14 13 13 14 15 14 13 12 12 12 12 13 13 13 13 11 11 11 11 11 12 14
2 3 4 5 6 8 9 11 13 13 12 14 16 17 18 18 17 17 17 15 13 12 11 12 13 13 14 15 17 18 19 20 20 21 21 21 19 19 20 21 20 20 21 20 16 12 10 11 12 11 10 11 10 10 10 11 11 11 12 13 14 13 12 13 16 19 21 21 17 14 14 13 12 13 13 13 14 13 12 11 11 11 12 12 13
2 2 4 6 7 8 10 11 13 12 13 15 17 17 16 16 18 20 21 19 17 15 14 15 16 16 16 16 15 17 18 19 20 20 19 18 18 19 20 21 20 19 18 16 12 9 9 9 10 10 10 10 11 11 11 12 13 13 13 14 15 16 18 21 23 24 22 20 17 16 16 15 14 14 14 14 13 11 11 11 11 11 11 12 13
2 3 4 6 8 9 10 12 13 13 14 15 17 17 17 16 18 20 22 22 22 21 19 18 18 18 19 18 17 17 18 19 19 18 17 16 17 18 20 21 19 16 14 13 12 10 9 9 10 10 10 11 12 13 14 15 16 16 16 17 17 19 22 23 21 18 17 16 16 15 15 15 14 14 13 13 11 10 10 11 11 11 11 12 13
2 3 4 6 8 9 11 12 13 13 14 15 16 16 17 18 18 19 19 20 22 23 23 23 21 20 19 19 19 19 20 19 18 17 16 16 17 18 19 19 16 13 13 13 12 11 11 12 13 12 13 14 15 15 16 17 17 17 16 17 18 19 21 19 16 15 16 16 16 15 15 15 14 14 13 13 12 12 12 11 11 11 11 11 11
3 4 5 6 8 9 11 12 12 13 14 15 16 16 17 18 19 19 19 19 20 22 24 24 24 23 21 20 21 21 21 19 18 17 17 17 18 19 18 16 15 16 17 15 13 13 14 15 15 15 16 17 18 18 19 19 20 20 20 20 20 20 20 19 17 18 18 17 16 16 16 16 15 14 13 14 14 14 14 12 11 11 11 11 12
4 4 5 7 8 10 11 11 12 13 14 15 16 17 18 19 19 19 20 20 21 22 23 24 26 25 22 21 23 24 22 21 20 18 18 19 19 18 17 16 16 18 18 17 17 18 18 17 17 18 19 19 20 21 21 22 22 23 23 23 23 22 22 22 22 22 21 20 19 19 19 19 18 16 14 14 14 14 12 11 11 11 12 13 13
5 6 7 8 9 10 12 13 13 14 15 15 16 17 18 19 20 20 19 20 21 23 23 23 23 20 17 19 25 27 25 24 21 19 19 21 20 18 18 18 18 18 19 20 20 21 21 20 20 20 21 21 22 22 22 22 23 23 23 24 24 24 23 23 22 22 21 20 20 19 18 18 17 15 14 14 14 14 14 13 13 13 14 13 13
7 7 8 9 10 11 12 14 15 15 16 17 17 18 19 19 20 20 20 21 22 23 23 22 20 18 18 21 26 27 26 24 22 21 23 24 22 20 20 20 19 19 20 21 22 21 21 22 22 21 22 22 23 22 22 22 23 23 24 24 24 23 22 21 20 20 19 18 18 17 17 17 17 16 15 14 15 16 16 16 15 15 14 13 13
9 9 9 10 11 12 14 15 16 17 17 18 18 19 20 20 20 20 21 21 22 23 23 23 23 23 22 23 24 24 23 23 23 23 25 25 24 23 22 21 20 21 22 22 22 22 22 22 22 22 23 23 23 23 23 23 23 23 23 22 22 22 22 21 20 20 20 19 19 19 18 18 18 17 15 15 17 17 17 17 17 15 15 15 15
10 11 11 11 12 14 15 16 17 18 19 19 20 20 20 20 21 21 21 21 22 23 24 25 25 24 23 22 22 22 22 22 23 23 24 25 25 24 23 22 22 22 22 22 23 22 23 23 23 23 23 24 23 23 23 23 23 22 21 21 21 22 22 21 21 21 21 21 21 20 19 18 18 17 17 17 17 16 15 16 15 14 14 14 14
12 13 13 13 14 15 17 18 19 19 20 20 20 20 20 21 21 21 22 22 23 23 24 25 25 25 23 22 21 21 21 21 22 22 23 24 24 24 24 23 22 22 22 23 23 23 23 24 24 24 24 24 24 23 23 22 22 21 20 21 21 22 22 21 21 22 22 22 20 20 20 20 20 19 19 18 17 15 15 14 14 14 14 13 13
14 15 15 15 16 17 18 19 19 20 20 20 20 20 20 21 21 21 22 23 23 23 24 25 25 25 25 23 22 21 22 22 22 22 23 24 24 24 24 23 23 23 23 23 23 23 23 24 24 24 24 24 24 24 23 22 22 22 21 21 22 23 23 22 22 22 21 19 19 19 20 20 19 18 17 16 15 15 15 15 15 15 14 13 13
16 16 17 17 17 18 19 19 20 20 20 20 21 21 21 21 21 22 22 23 23 23 24 25 25 26 26 25 24 23 23 22 23 23 23 24 24 24 23 23 23 23 24 24 23 23 24 24 25 25 25 25 24 24 24 23 23 22 21 21 21 22 22 22 22 21 20 19 20 20 20 19 18 17 16 16 15 15 16 16 16 16 15 14 13
16 17 18 18 19 19 20 20 20 21 21 21 22 22 22 22 22 22 22 23 24 24 24 25 25 25 26 25 25 24 24 23 23 23 23 24 24 24 23 23 24 24 24 24 24 24 24 24 25 25 25 25 24 24 24 23 23 22 22 21 22 22 23 23 23 23 23 23 23 22 20 19 18 17 17 16 16 16 16 16 15 16 16 15 15
17 18 18 19 20 20 21 21 21 22 22 22 23 23 23 23 23 23 23 23 24 24 24 25 25 25 25 25 25 24 24 24 24 24 24 24 23 23 23 23 23 24 24 24 24 24 24 24 24 25 25 25 24 23 23 23 22 22 22 21 21 22 22 22 22 23 24 24 23 22 21 20 19 18 19 19 18 17 17 17 16 16 16 16 16
17 18 19 19 20 21 22 22 22 23 23 23 23 24 24 24 24 24 24 24 24 24 24 24 24 25 25 25 24 24 24 24 24 24 24 24 23 23 23 23 23 23 24 24 24 24 24 24 24 24 24 24 23 23 23 23 23 22 22 21 20 20 21 21 23 23 23 22 21 21 21 20 20 19 18 18 17 16 16 17 17 16 16 16 16
18 18 19 20 21 22 23 23 23 24 24 24 24 25 25 25 25 25 25 25 24 24 25 25 24 24 24 25 24 24 24 25 25 25 24 24 24 24 23 23 23 23 24 24 24 24 24 24 24 23 23 23 23 23 22 22 22 23 23 22 22 22 24 26 26 25 23 22 22 22 21 21 20 19 18 17 16 16 17 16 16 15 15 15 15
18 19 20 21 22 22 23 24 24 25 25 25 25 26 26 25 26 25 25 25 25 25 25 25 25 25 25 25 25 24 24 25 25 25 25 25 24 24 24 24 23 24 24 24 24 24 24 24 24 23 23 22 22 22 22 22 23 23 23 24 24 26 27 26 25 24 24 23 22 21 20 20 20 19 18 18 17 17 17 17 16 16 16 16 15
19 19 20 21 22 23 23 24 24 25 25 25 26 26 26 26 26 26 25 25 26 25 25 25 25 25 25 25 25 25 25 25 25 25 25 25 24 24 24 24 24 24 25 25 25 24 24 24 24 23 23 22 22 22 21 22 22 23 24 25 26 27 26 26 26 26 24 23 22 21 20 20 19 18 18 17 17 16 17 17 16 16 16 16 16
19 20 21 21 22 23 23 24 25 25 25 25 26 26 26 27 27 27 26 26 26 26 26 26 26 26 25 25 25 25 25 25 25 25 25 25 25 25 25 25 25 25 25 25 25 25 24 24 24 23 23 22 22 21 21 22 22 23 24 25 25 25 26 26 27 27 24 22 21 21 19 18 18 18 18 17 17 16 17 17 17 16 16 16 16
Wind_Direction
68 66 65 63 62 60 58 55 53 50 48 46 43 39 34 29 22 17 14 9 8 6 3 1 360 358 357 356 356 356 353 352 352 349 346 343 340 335 333 333 329 326 322 320 319 316 312 310 306 305 304 300 298 297 296 299 300 298 295 291 285 281 279 278 279 286 290 291 289 290 292 292 289 289 287 284 282 282 285 286 285 284 284 282 280
68 68 66 64 61 59 57 53 50 49 46 42 38 34 30 24 16 15 12 6 6 5 0 357 357 357 355 353 353 352 350 350 349 346 343 340 338 335 333 331 327 324 321 318 317 315 312 307 304 304 302 297 295 294 295 298 299 295 292 290 286 281 281 283 284 287 290 294 295 294 296 295 290 289 289 289 288 286 285 285 285 285 285 284 282
71 71 68 65 62 59 56 52 48 47 44 38 33 28 24 18 12 12 9 4 4 3 359 357 355 356 354 352 352 350 349 347 345 343 340 336 335 332 330 329 326 322 318 314 313 312 309 305 304 306 304 300 296 293 295 297 298 295 292 288 285 283 283 283 284 286 290 295 297 297 300 300 296 295 295 291 288 287 284 280 280 280 280 281 280
72 72 69 65 62 57 53 50 45 44 39 32 27 21 18 14 9 8 6 2 2 359 356 357 356 355 352 351 350 347 346 344 340 338 336 334 331 327 326 324 319 316 312 309 307 304 303 303 304 305 303 301 298 295 295 297 297 296 292 288 284 284 286 286 288 291 294 295 296 297 299 298 296 296 296 295 291 286 283 279 277 276 275 274 276
72 70 66 62 59 52 48 45 39 37 32 25 19 15 12 9 5 5 3 1 1 357 356 358 355 352 350 348 346 343 342 339 336 334 333 331 327 323 323 320 316 313 307 303 301 298 297 298 299 301 300 298 298 296 295 297 298 295 291 288 287 288 290 291 292 293 292 292 294 296 296 294 294 293 293 295 294 291 288 285 281 277 275 273 271
71 66 60 56 52 45 40 37 32 30 24 18 13 9 7 5 3 4 2 360 359 356 356 357 351 349 348 345 344 342 340 337 333 330 328 327 328 328 328 325 320 313 305 302 303 302 303 304 305 307 308 307 308 307 305 305 304 299 294 291 290 289 290 291 292 291 289 289 291 294 293 292 291 291 290 290 291 292 293 292 287 280 275 272 268
69 62 56 54 48 40 36 31 27 25 18 12 10 6 5 4 2 3 2 359 358 357 356 354 350 350 349 346 346 342 338 335 330 327 327 330 334 334 332 326 319 311 304 303 305 306 310 316 319 321 321 319 318 315 312 310 307 301 296 294 292 290 289 289 290 288 286 286 288 289 291 292 291 291 292 290 288 286 287 288 287 282 276 270 267
66 58 53 50 42 34 31 26 24 19 11 9 8 5 4 4 3 4 2 359 359 358 355 352 351 352 350 346 344 339 334 332 329 330 334 337 337 332 325 320 315 314 315 316 315 314 316 316 315 315 317 318 316 311 308 306 304 300 296 294 293 291 289 287 286 284 282 283 284 286 288 290 290 291 292 290 286 283 283 283 285 285 279 272 271
62 54 49 43 34 28 25 21 18 13 8 8 8 5 4 4 4 4 3 1 2 358 355 356 353 349 347 342 338 336 333 331 333 337 336 333 328 322 317 317 321 326 328 325 320 317 314 311 307 305 305 306 307 306 305 304 301 298 295 294 292 290 287 285 282 281 280 280 281 284 285 286 286 289 290 288 286 286 286 283 281 281 280 276 272
56 50 44 35 28 25 23 18 13 10 8 7 7 5 4 5 5 3 3 4 3 357 356 358 351 344 343 340 338 337 333 333 339 338 329 324 323 321 319 324 333 333 329 324 318 315 313 310 308 304 302 301 301 301 302 303 301 299 296 294 291 288 285 283 282 280 280 280 281 282 283 282 283 285 286 286 287 287 285 283 279 279 280 279 274
51 46 41 31 27 26 20 15 11 9 9 7 6 5 4 5 4 2 3 3 360 357 356 352 346 344 342 338 338 336 330 335 340 333 326 327 328 326 325 331 336 332 328 324 318 315 314 311 310 309 307 306 303 302 302 300 298 296 295 294 291 287 284 282 281 279 279 279 280 281 282 283 285 286 287 288 289 288 286 284 283 282 281 279 276
47 43 38 29 28 25 16 12 10 8 8 6 4 4 3 5 3 0 2 359 355 354 351 347 344 343 340 337 337 332 328 337 338 329 328 331 330 327 330 337 338 333 326 323 318 315 315 312 310 309 307 307 307 306 304 301 297 294 291 290 288 285 283 281 279 279 279 278 279 280 281 284 288 288 287 287 287 287 285 283 282 281 279 278 276
42 41 38 29 26 22 13 11 9 7 7 4 3 3 3 3 1 358 356 353 349 347 346 344 342 340 338 336 335 328 329 338 337 329 329 331 331 333 338 340 340 332 326 324 319 317 316 313 311 310 308 307 307 307 308 306 303 298 293 291 290 288 286 283 279 278 276 276 278 279 280 284 286 285 285 284 283 281 280 278 277 275 273 272 272
41 39 37 29 24 16 12 11 7 6 5 3 3 3 2 2 358 353 351 348 346 344 342 341 339 338 337 335 332 328 331 337 333 328 330 333 335 338 340 340 339 332 326 323 320 319 317 313 312 310 309 311 310 310 311 309 306 304 301 299 296 295 294 290 287 284 279 277 275 274 277 280 280 282 284 281 277 274 273 275 276 276 275 275 278
42 38 34 27 19 13 11 9 7 6 4 3 5 2 1 359 354 350 350 347 344 341 340 337 335 335 335 334 332 329 329 332 331 328 329 335 340 343 342 339 337 329 324 322 319 318 314 311 311 310 314 316 313 313 312 307 305 305 305 302 298 295 294 291 291 290 285 282 278 277 281 281 278 286 298 289 276 273 275 276 277 278 279 278 279
41 33 29 21 15 12 10 7 7 7 4 5 5 1 357 355 350 346 345 343 342 339 337 334 332 331 333 334 333 330 329 330 331 329 328 336 345 347 343 339 333 326 324 320 318 317 313 311 312 314 316 314 312 312 308 304 306 307 305 303 298 295 294 290 289 289 285 281 280 280 283 278 266 289 330 346 340 325 312 294 285 287 288 282 279
37 28 23 16 12 10 9 8 9 8 6 6 3 358 355 350 347 345 343 341 340 338 336 333 331 330 331 333 333 330 329 333 336 331 328 337 347 349 342 336 330 325 323 320 319 317 313 314 316 316 315 312 311 310 305 305 310 310 308 307 303 299 297 293 292 292 287 282 279 278 280 282 283 297 319 340 345 344 348 328 309 318 323 302 290
29 23 19 13 11 9 7 10 10 7 6 5 358 356 354 348 345 345 341 337 336 336 335 331 329 329 328 330 333 329 328 338 344 336 328 337 349 350 343 335 330 327 324 321 320 318 315 315 315 314 313 312 312 309 304 306 312 313 313 311 306 302 298 293 291 290 283 275 273 275 281 289 296 306 320 333 337 340 348 339 324 329 326 306 300
23 20 17 12 11 10 7 9 11 7 2 360 357 357 354 346 345 343 338 336 334 333 333 329 329 333 328 327 331 329 328 340 347 339 331 340 352 353 346 339 332 327 325 323 321 319 317 314 313 313 313 314 314 311 308 309 314 315 315 310 302 298 292 284 280 284 283 279 281 289 296 301 306 313 320 329 335 337 339 335 330 328 314 304 305
22 19 16 12 12 12 7 6 9 6 360 357 360 2 355 344 347 347 342 340 336 335 337 332 330 333 330 326 330 331 331 339 347 344 337 341 353 355 350 342 334 327 326 325 322 319 317 314 314 315 316 316 316 313 311 313 316 317 315 307 305 308 300 281 280 305 310 309 311 312 314 316 319 322 324 327 331 331 330 330 328 322 308 300 299
23 20 16 13 14 18 14 9 7 6 4 1 3 6 359 349 354 355 348 341 342 345 346 340 331 330 330 327 329 334 337 339 345 349 343 341 351 356 350 341 334 329 325 324 322 319 317 317 316 316 319 320 317 313 313 316 320 319 313 306 312 330 339 330 329 331 324 321 322 320 319 321 323 324 326 329 330 325 324 325 323 318 308 296 291
21 18 17 16 19 23 20 15 11 8 8 6 5 6 1 356 359 0 353 347 348 349 348 340 330 328 328 324 320 329 338 340 342 348 347 343 347 352 348 339 334 331 327 323 320 317 315 315 315 316 319 319 315 315 320 324 323 316 310 309 314 327 337 336 332 330 324 319 318 316 317 320 322 323 326 329 326 320 320 323 320 314 308 297 287
17 18 20 22 26 26 20 18 16 12 10 7 5 5 0 358 359 357 352 349 345 342 339 332 324 322 322 318 314 320 331 337 340 344 346 344 345 348 348 341 334 332 326 319 316 315 312 313 313 316 319 317 317 324 333 334 326 316 316 320 322 328 335 338 335 330 324 320 318 318 319 320 320 321 323 322 317 313 314 315 312 310 308 302 295
18 20 24 26 26 23 20 19 16 13 11 6 4 2 358 359 358 349 346 347 337 326 327 323 319 320 318 316 318 316 318 330 337 340 342 343 344 345 343 337 331 328 322 314 312 311 310 311 314 316 318 318 321 331 339 337 332 331 326 323 326 334 342 342 338 333 328 323 320 318 317 317 317 315 314 313 312 310 311 310 309 308 307 304 301
20 20 25 27 24 19 19 19 16 14 11 5 2 360 357 357 355 346 342 340 327 318 323 320 316 318 316 314 316 316 317 324 330 335 340 343 342 336 330 327 325 323 319 313 309 308 309 312 314 315 317 318 321 327 333 334 335 334 327 324 330 339 344 341 335 329 324 319 316 313 310 309 305 305 309 312 312 311 311 309 308 307 306 304 302
16 16 22 27 23 17 16 15 14 12 9 5 3 359 355 353 350 345 339 330 321 318 319 318 315 314 314 314 314 315 319 321 321 327 335 337 333 327 325 323 322 321 318 312 310 311 312 313 314 314 315 316 318 319 320 323 326 326 326 328 332 335 337 336 329 321 316 312 309 306 304 303 302 306 311 313 310 307 307 306 304 304 303 302 299
9 12 18 24 20 14 10 8 7 4 2 2 359 354 351 348 344 341 332 322 323 321 317 317 317 315 316 316 314 314 316 317 318 325 330 330 327 325 324 322 321 321 319 316 316 316 314 313 313 313 313 312 314 316 316 316 318 322 325 327 327 327 327 327 321 310 306 305 304 302 302 303 304 306 308 306 300 299 302 303 302 301 301 300 295
2 6 13 20 15 8 5 5 3 358 357 358 354 349 348 346 343 340 336 328 322 317 315 316 315 315 316 315 315 316 314 314 318 324 326 324 323 322 321 320 320 319 317 317 318 315 313 311 310 313 316 317 318 319 318 315 314 316 318 321 320 319 320 322 316 303 300 301 301 302 303 303 303 302 303 301 299 300 302 300 296 296 299 298 291
4 9 15 18 10 3 1 0 359 355 353 353 351 347 348 350 349 348 348 342 327 313 308 306 306 310 311 310 312 312 308 311 319 322 320 318 317 317 316 315 315 314 314 316 316 313 311 309 309 315 319 320 320 319 318 317 316 315 316 318 316 313 314 314 308 303 304 304 303 303 304 303 301 301 301 299 297 297 298 296 292 292 293 290 286
15 22 19 13 3 358 356 353 351 349 345 345 346 347 350 354 356 355 356 356 350 336 313 304 305 307 304 303 307 307 304 310 318 321 319 316 314 312 311 311 312 312 313 315 314 311 306 304 307 312 314 314 315 316 315 315 314 313 314 315 313 312 311 310 307 306 306 305 302 301 299 298 297 298 297 294 294 295 294 290 286 286 286 285 285
20 12 7 3 355 353 351 347 347 345 341 342 344 345 346 350 355 358 360 360 0 359 348 334 329 322 311 309 313 313 312 315 319 319 318 316 314 313 314 314 313 311 312 315 313 307 301 300 303 306 307 306 306 307 308 308 308 307 309 309 309 308 306 304 305 306 304 303 299 295 293 291 291 293 292 291 292 293 292 288 285 282 282 283 285
24 2 352 349 350 350 347 345 345 343 341 342 343 343 342 342 345 350 355 359 360 0 359 354 348 341 333 328 323 320 320 322 322 321 319 318 319 320 318 314 312 311 314 316 311 301 297 299 299 301 304 301 299 300 302 302 302 302 303 303 304 304 300 300 305 307 307 305 299 293 292 290 287 288 290 289 289 290 289 288 286 283 284 283 282
7 350 342 342 345 345 343 342 341 339 338 341 342 342 340 337 334 337 344 351 356 359 359 356 351 347 343 339 332 326 326 328 327 325 324 326 327 322 316 315 318 320 323 323 314 301 298 298 295 297 300 299 299 301 300 300 301 301 300 300 300 302 305 310 313 313 311 307 299 292 290 290 288 288 287 285 285 285 283 284 284 283 282 283 282
331 330 332 335 337 337 337 337 336 336 338 340 340 340 338 336 333 332 334 339 344 347 351 352 351 349 346 342 338 335 333 333 332 331 333 335 330 323 321 326 330 330 329 326 316 304 301 299 298 299 299 299 301 302 301 303 304 302 300 301 301 303 308 312 312 308 304 302 297 291 289 289 287 286 286 284 282 280 279 281 282 281 281 282 285
309 318 321 324 328 330 331 331 333 335 337 338 338 337 335 335 334 331 329 329 331 333 337 342 346 348 346 344 342 341 339 338 337 339 343 343 337 332 333 335 334 332 330 325 315 306 304 303 302 303 303 302 304 304 303 304 304 303 301 301 302 304 308 308 303 299 299 299 295 291 290 290 288 285 283 282 280 280 280 279 279 279 279 280 282
300 311 315 318 321 324 326 328 331 333 334 335 335 333 332 332 332 331 329 327 324 324 328 333 339 343 347 347 346 344 343 342 343 347 350 348 345 343 340 334 328 328 328 325 319 313 310 307 305 307 308 307 308 308 308 307 308 308 307 306 305 305 305 303 301 301 301 297 293 292 291 290 289 286 282 280 279 278 277 276 276 275 273 275 280
293 304 312 316 318 319 322 324 326 328 330 332 331 330 330 331 330 329 327 325 323 322 324 327 332 337 342 346 345 343 343 345 349 352 351 349 348 347 341 332 327 326 324 324 323 320 316 314 312 311 311 311 312 312 311 311 312 312 312 311 309 306 306 306 306 306 303 299 297 297 296 294 293 289 283 279 280 279 276 276 276 276 276 277 278
290 298 306 309 313 316 318 320 323 325 327 328 328 327 327 327 327 326 324 322 322 322 323 324 327 329 331 336 340 342 343 346 349 347 344 345 345 342 337 333 330 326 323 323 324 323 319 318 317 316 315 315 315 315 314 314 313 313 312 312 310 308 308 308 308 307 304 300 299 299 297 295 293 290 283 278 278 278 279 279 279 279 280 279 275
287 294 300 305 309 313 314 315 319 321 322 323 324 324 324 324 324 322 320 319 320 321 321 322 323 324 325 331 338 341 341 340 339 337 337 339 340 338 336 334 330 327 325 325 325 323 320 319 319 319 318 317 318 317 315 314 313 313 312 311 310 308 307 306 304 304 301 297 296 296 295 293 294 293 287 281 280 281 281 281 279 278 277 276 275
285 291 296 301 305 308 310 311 314 317 318 319 319 319 319 320 319 318 318 317 316 318 319 319 320 324 328 333 338 339 335 329 328 328 330 333 335 336 336 333 329 327 327 327 326 324 321 319 319 319 318 319 319 318 316 315 314 313 312 309 307 306 306 305 303 303 303 301 299 298 296 296 297 294 286 282 284 284 282 281 279 276 272 273 275
285 290 294 299 302 305 306 308 311 313 314 314 315 315 315 316 317 317 316 314 313 315 316 317 320 324 329 334 337 336 329 324 323 325 326 329 332 333 333 332 329 328 328 328 327 326 323 321 320 320 320 320 320 318 317 316 314 310 308 306 305 305 305 305 304 304 305 304 302 300 297 296 296 293 288 287 287 283 278 277 276 273 272 273 274
285 290 294 298 302 304 305 307 310 311 312 312 313 313 313 314 315 314 313 313 313 313 314 316 319 323 328 332 334 333 329 326 324 324 326 328 330 330 331 332 331 329 328 329 329 328 326 323 323 322 321 321 321 320 317 315 313 310 306 304 304 304 303 303 304 306 306 304 301 299 299 299 298 294 291 288 286 280 276 275 274 274 275 275 274
284 288 293 296 299 301 303 305 308 309 310 311 312 312 312 313 313 313 312 312 313 313 313 315 319 322 325 329 332 332 331 329 326 325 326 328 329 329 331 331 330 330 330 331 332 331 328 325 324 323 322 322 323 322 319 317 315 311 306 304 305 306 305 305 306 307 305 301 297 296 297 296 294 291 287 283 279 277 276 275 275 275 276 276 276
283 287 290 293 296 298 300 304 306 307 309 310 311 312 313 313 312 312 311 312 313 314 313 314 317 320 323 327 329 330 328 327 326 326 326 327 328 329 330 331 331 332 332 333 334 334 331 327 326 325 324 325 326 325 323 320 318 314 309 305 304 303 304 305 306 306 305 301 298 296 294 291 287 285 284 282 279 277 276 275 275 275 276 277 277
283 286 289 291 294 296 299 303 305 306 308 309 309 311 313 312 311 311 311 311 312 313 313 314 316 318 320 323 325 325 325 325 325 325 326 327 328 329 330 331 331 332 333 334 335 335 333 331 329 328 327 328 328 327 326 325 322 318 314 309 306 307 309 311 311 311 310 306 301 296 293 290 286 284 282 282 282 280 278 278 277 276 277 277 277
283 285 287 289 292 295 297 300 302 304 306 306 306 308 309 310 310 310 310 310 310 311 312 313 314 316 317 320 321 322 323 324 324 324 325 327 327 328 329 330 331 331 332 333 335 335 335 334 332 330 329 330 330 330 329 329 326 322 318 314 310 308 310 312 312 311 309 305 301 297 292 289 287 284 283 283 282 279 277 277 276 275 275 275 276
283 285 286 288 291 293 295 298 300 302 302 303 303 305 306 307 307 308 309 310 310 310 311 312 313 314 315 317 318 320 322 322 322 323 324 326 327 329 329 330 330 331 332 333 334 335 335 335 334 332 332 332 332 332 332 331 329 326 323 319 314 310 312 316 315 310 305 302 299 296 293 290 288 287 286 284 280 278 277 277 276 275 274 275 276
283 285 287 288 290 292 294 297 299 299 300 301 301 302 303 304 305 306 307 308 309 309 310 311 312 313 314 315 317 319 320 320 321 322 324 325 326 327 328 328 329 330 330 332 334 334 334 334 335 334 334 334 333 333 332 332 331 330 327 325 323 323 325 325 319 312 306 303 299 295 291 289 286 285 285 283 281 280 281 280 279 279 279 278 277
284 285 287 288 289 291 293 295 296 297 298 299 299 300 302 303 303 305 306 306 307 308 309 309 310 312 313 314 315 317 318 318 320 321 322 323 325 325 326 327 328 329 329 330 332 333 333 334 335 335 334 334 334 333 333 333 333 331 329 328 329 330 330 328 323 317 312 307 302 296 292 288 286 284 284 283 282 281 279 279 279 280 280 279 278
285 286 287 288 289 291 293 294 295 296 297 298 298 299 300 301 302 303 305 305 305 306 307 308 309 310 311 312 313 314 315 316 317 319 320 321 323 324 325 325 326 328 328 329 329 331 332 333 333 334 334 334 334 334 334 333 333 332 332 332 333 333 334 334 332 328 322 314 306 300 294 288 285 284 284 284 283 281 279 278 279 279 279 278 278
287 288 288 289 290 292 293 294 295 296 297 298 298 298 298 299 300 302 303 303 304 305 306 307 308 309 310 311 312 312 313 314 315 317 318 320 321 323 323 324 325 326 326 327 327 329 330 331 332 333 333 333 334 334 334 333 333 334 334 335 336 337 339 339 337 333 329 323 314 306 297 290 286 285 284 284 284 282 280 280 279 278 276 276 275